This demonstration page uses our WeatherBlox Daily Observations layout. Learn more.

Left ArrowRight Arrow

41.55636, -103.73856

Hourly Observations for August 14, 2021

Temp ( °F °C ) Dew Point ( °F °C ) Humidity (%) Winds ( mph kmh ) Pressure ( in mb ) Visibility ( mi km ) Precip ( " mm )
12:58 am 00:58 Clear 68 19.9 59 14.8 73 73 SE 16 26 30.16 1021 10 16 0.00 0.00
1:58 am 01:58 Mostly Clear 65 18.6 59 15.1 80 80 SE 10 17 30.16 1021 10 16 0.00 0.00
2:58 am 02:58 Clear 64 17.6 59 15.2 86 86 ESE 10 17 30.15 1021 10 16 0.00 0.00
3:58 am 03:58 Clear 63 17.2 59 15.2 88 88 SE 6 9 30.15 1021 10 16 0.00 0.00
4:58 am 04:58 Mostly Clear 63 17.2 59 15.1 88 88 SSE 10 17 30.16 1021 10 16 0.00 0.00
5:58 am 05:58 Clear 61 16.3 59 14.8 91 91 Calm 30.17 1022 10 16 0.00 0.00
6:58 am 06:58 Sunny 62 16.7 59 15 90 90 SSE 5 7 30.17 1022 10 16 0.00 0.00
7:58 am 07:58 Sunny 65 18.3 59 15.1 82 82 SSW 5 7 30.18 1022 10 16 0.00 0.00
8:58 am 08:58 Sunny 69 20.4 59 15.1 72 72 S 6 9 30.17 1022 10 16 0.00 0.00
9:58 am 09:58 Sunny 74 23.6 59 15.1 59 59 SSE 8 13 30.15 1021 10 16 0.00 0.00
10:58 am 10:58 Sunny 78 25.4 60 15.4 54 54 SE 7 11 30.13 1020 10 16 0.00 0.00
11:58 am 11:58 Sunny 83 28.4 58 14.5 43 43 SE 9 15 30.09 1019 10 16 0.00 0.00
12:58 pm 12:58 Sunny 87 30.8 53 11.7 31 31 SE 3 6 30.06 1018 10 16 0.00 0.00
1:58 pm 13:58 Sunny 90 32 47 8.4 23 23 Calm 30.04 1017 10 16 0.00 0.00
2:58 pm 14:58 Sunny 90 32 47 8.3 23 23 ESE 3 6 30.02 1017 10 16 0.00 0.00
3:58 pm 15:58 Sunny 92 33.6 45 7.1 19 19 NNE 6 9 29.98 1015 10 16 0.00 0.00
4:58 pm 16:58 Sunny 92 33.5 43 6.1 18 18 Calm 29.96 1015 10 16 0.00 0.00
5:58 pm 17:58 Mostly Cloudy 90 32.3 46 7.6 21 21 SE 8 13 29.96 1015 10 16 0.00 0.00
6:58 pm 18:58 Mostly Cloudy 87 30.8 45 7.4 23 23 SSE 8 13 29.96 1015 10 16 0.00 0.00
7:58 pm 19:58 Clear 83 28.5 45 7.1 26 26 SSE 16 26 29.96 1015 10 16 0.00 0.00
8:58 pm 20:58 Mostly Cloudy 77 25.1 50 10.1 39 39 SSE 18 30 30.00 1016 10 16 0.00 0.00
9:58 pm 21:58 Mostly Clear 77 24.9 50 10 39 39 SSE 25 41 29.98 1015 10 16 0.00 0.00
10:58 pm 22:58 Clear 74 23.4 49 9.4 41 41 S 25 41 29.98 1015 10 16 0.00 0.00

Powered by AerisWeather